Location: Pinon Hills
(34.4429°N, 117.6403°W)
Time: 05:37:44
(UTC-08:00)

Uosat F - Visible Passes

Search period start: 19 January 2018 00:00
Search period end: 29 January 2018 00:00
Orbit: 750 x 761 km, 98.7° (Epoch: 19 January)

Date Brightness Start Highest point End Pass type
(mag) Time Alt. Az. Time Alt. Az. Time Alt. Az.
19 Jan 10.9 18:23:43 10° SSE 18:28:42 78° ENE 18:33:42 10° N visible
20 Jan 11.8 17:45:03 10° SE 17:49:23 30° ENE 17:53:43 10° N visible
20 Jan 13.2 19:24:00 10° SSW 19:28:05 25° W 19:32:10 10° NW visible
21 Jan 14.4 05:58:00 10° ENE 05:59:55 12° E 06:01:48 10° ESE visible
21 Jan 11.4 18:43:29 10° S 18:48:26 66° WSW 18:53:25 10° NNW visible
22 Jan 11.2 18:04:14 10° SE 18:09:00 48° ENE 18:13:48 10° N visible
22 Jan 13.9 19:45:01 10° SW 19:47:58 16° W 19:50:55 10° WNW visible
23 Jan 14.0 06:16:12 10° NE 06:19:50 20° E 06:23:27 10° SE visible
23 Jan 12.4 19:03:32 10° S 19:08:13 40° W 19:12:56 10° NNW visible
24 Jan 10.9 18:23:42 10° SSE 18:28:41 77° ENE 18:33:42 10° N visible
25 Jan 11.8 17:45:03 10° SE 17:49:22 30° ENE 17:53:41 10° N visible
25 Jan 13.2 19:23:57 10° SSW 19:28:03 25° W 19:32:11 10° NW visible
26 Jan 14.5 05:58:05 10° ENE 05:59:54 12° E 06:01:41 10° ESE visible
26 Jan 11.4 18:43:27 10° S 18:48:25 67° WSW 18:53:25 10° NNW visible
27 Jan 11.3 18:04:14 10° SE 18:08:59 47° ENE 18:13:47 10° N visible
27 Jan 13.9 19:44:55 10° SW 19:47:56 16° W 19:50:58 10° NW visible
28 Jan 14.0 06:16:13 10° NE 06:19:49 19° E 06:23:24 10° SE visible
28 Jan 12.3 19:03:30 10° S 19:08:12 41° W 19:12:56 10° NNW visible
